Simultaneous Nadir Overpasses (SNOs) Predictions

Prediction of SNOs between GOES-14 and NOAA-20 Satellite Orbit:

Table of predicted SNOs for the next 14.0 days since TLE Epoch: 4/12/2019
Index Date Time (GOES-14) GOES-14 Lat,Lon NOAA-20 Lat,Lon Distance(km) Time Diff (sec)
1 04/15/2019 08:24:14 0.12,-104.39 0.29,-105.06 76.87 80
2 04/16/2019 08:08:09 0.13,-104.40 -0.74,-100.54 440.14 80
3 04/17/2019 20:30:06 -0.12,-104.36 -0.44,-105.84 168.81 80
4 04/18/2019 20:08:40 -0.13,-104.35 0.54,-101.30 347.21 80
5 04/20/2019 08:30:28 0.12,-104.39 0.64,-106.57 249.64 80
6 04/21/2019 08:14:23 0.12,-104.40 -0.40,-102.05 267.57 80
7 04/22/2019 20:36:19 -0.11,-104.38 -0.78,-107.36 339.34 80
8 04/23/2019 20:14:54 -0.12,-104.37 0.20,-102.82 176.77 80
9 04/25/2019 08:36:42 0.11,-104.39 0.92,-108.10 422.07 80
10 04/26/2019 08:20:37 0.12,-104.40 -0.06,-103.56 95.26 80




NCC Satellite Simultaneous Nadir Overpasses (SNOs) Prediction Service
